Torna al catalogo

COSMOS 593

AttivoMilitareLEO
NORAD 6850·PAYLOAD·🇷🇺 Russia

Lanciato Oct 2, 1973 da Plesetsk Cosmodrome

Loading…

Prossimi Passaggi (prossime 24 ore)

TLE

AggiornatoSource: Space-Track

Epoca: Sep 14, 2026, 10:34 UTC

1 06850U 73069F   26257.44041957 -.00000036  00000-0 -11501-3 0  9992
2 06850  73.9997  56.8366 0077308  95.3095 294.6898 12.59722188434793

Traccia COSMOS 593 in tempo reale con AllMySat

Download on the App Store